owner,sensor,date,latitude,longitude,vertical_datum,mass_concentration_of_oxygen_in_sea_water,qcFlag 
DISL,ioos:station:DISL:BSCA:1,2013-07-01T00:00:00Z,30.3288,-87.8293,1.947,5.93,1111122 
DISL,ioos:station:DISL:BSCA:1,2013-07-01T00:30:00Z,30.3288,-87.8293,1.989,6.6,1111122 
DISL,ioos:station:DISL:BSCA:1,2013-07-01T01:00:00Z,30.3288,-87.8293,2.0,4.18,1111122 
DISL,ioos:station:DISL:BSCA:1,2013-07-01T01:30:00Z,30.3288,-87.8293,2.034,5.12,1111122 
DISL,ioos:station:DISL:BSCA:1,2013-07-01T02:00:00Z,30.3288,-87.8293,2.035,4.67,1111122 
DISL,ioos:station:DISL:BSCA:1,2013-07-01T02:30:00Z,30.3288,-87.8293,1.956,3.83,1111122 
DISL,ioos:station:DISL:BSCA:1,2013-07-01T03:00:00Z,30.3288,-87.8293,2.038,4.15,1111122 
DISL,ioos:station:DISL:BSCA:1,2013-07-01T03:30:00Z,30.3288,-87.8293,2.041,6.83,1111122 
DISL,ioos:station:DISL:BSCA:1,2013-07-01T04:00:00Z,30.3288,-87.8293,2.057,6.63,1111122 
DISL,ioos:station:DISL:BSCA:1,2013-07-01T04:30:00Z,30.3288,-87.8293,2.065,6.43,1111122 
DISL,ioos:station:DISL:BSCA:1,2013-07-01T05:00:00Z,30.3288,-87.8293,2.093,5.44,1111122 
DISL,ioos:station:DISL:BSCA:1,2013-07-01T05:30:00Z,30.3288,-87.8293,2.074,5.1,1111122 
DISL,ioos:station:DISL:BSCA:1,2013-07-01T06:00:00Z,30.3288,-87.8293,2.062,9.53,1111122 
DISL,ioos:station:DISL:BSCA:1,2013-07-01T06:30:00Z,30.3288,-87.8293,2.051,10.31,1111122 
DISL,ioos:station:DISL:BSCA:1,2013-07-01T07:00:00Z,30.3288,-87.8293,2.051,10.23,1111122 
DISL,ioos:station:DISL:BSCA:1,2013-07-01T07:30:00Z,30.3288,-87.8293,2.069,9.1,1111122 
DISL,ioos:station:DISL:BSCA:1,2013-07-01T08:00:00Z,30.3288,-87.8293,2.094,2.11,1111122 
DISL,ioos:station:DISL:BSCA:1,2013-07-01T08:30:00Z,30.3288,-87.8293,2.117,5.4,1111122 
DISL,ioos:station:DISL:BSCA:1,2013-07-01T09:00:00Z,30.3288,-87.8293,2.154,7.88,1111122 
DISL,ioos:station:DISL:BSCA:1,2013-07-01T09:30:00Z,30.3288,-87.8293,2.169,7.3,1111122 
DISL,ioos:station:DISL:BSCA:1,2013-07-01T10:00:00Z,30.3288,-87.8293,2.187,6.46,1111122 
DISL,ioos:station:DISL:BSCA:1,2013-07-01T10:30:00Z,30.3288,-87.8293,2.209,5.39,1111122 
DISL,ioos:station:DISL:BSCA:1,2013-07-01T11:00:00Z,30.3288,-87.8293,2.211,4.99,1111122 
DISL,ioos:station:DISL:BSCA:1,2013-07-01T11:30:00Z,30.3288,-87.8293,2.23,4.41,1111122 
DISL,ioos:station:DISL:BSCA:1,2013-07-01T12:00:00Z,30.3288,-87.8293,2.237,4.53,1111122 
DISL,ioos:station:DISL:BSCA:1,2013-07-01T12:30:00Z,30.3288,-87.8293,2.245,4.49,1111122 
DISL,ioos:station:DISL:BSCA:1,2013-07-01T13:00:00Z,30.3288,-87.8293,2.243,4.78,1111122 
DISL,ioos:station:DISL:BSCA:1,2013-07-01T13:30:00Z,30.3288,-87.8293,2.244,5.37,1111122 
DISL,ioos:station:DISL:BSCA:1,2013-07-01T14:00:00Z,30.3288,-87.8293,2.24,5.82,1111122 
DISL,ioos:station:DISL:BSCA:1,2013-07-01T14:30:00Z,30.3288,-87.8293,2.224,6.32,1111122 
DISL,ioos:station:DISL:BSCA:1,2013-07-01T15:00:00Z,30.3288,-87.8293,2.203,6.73,1111122 
DISL,ioos:station:DISL:BSCA:1,2013-07-01T15:30:00Z,30.3288,-87.8293,2.172,6.53,1111122 
DISL,ioos:station:DISL:BSCA:1,2013-07-01T16:00:00Z,30.3288,-87.8293,2.131,7.22,1111122 
DISL,ioos:station:DISL:BSCA:1,2013-07-01T16:30:00Z,30.3288,-87.8293,2.103,5.65,1111122 
DISL,ioos:station:DISL:BSCA:1,2013-07-01T17:00:00Z,30.3288,-87.8293,2.076,5.85,1111122 
DISL,ioos:station:DISL:BSCA:1,2013-07-01T17:30:00Z,30.3288,-87.8293,2.049,5.12,1111122 
DISL,ioos:station:DISL:BSCA:1,2013-07-01T18:00:00Z,30.3288,-87.8293,2.026,4.97,1111122 
DISL,ioos:station:DISL:BSCA:1,2013-07-01T18:30:00Z,30.3288,-87.8293,2.007,5.83,1111122 
DISL,ioos:station:DISL:BSCA:1,2013-07-01T19:00:00Z,30.3288,-87.8293,1.989,4.0,1111122 
DISL,ioos:station:DISL:BSCA:1,2013-07-01T19:30:00Z,30.3288,-87.8293,1.978,3.76,1111122 
DISL,ioos:station:DISL:BSCA:1,2013-07-01T20:00:00Z,30.3288,-87.8293,1.969,2.67,1111122 
DISL,ioos:station:DISL:BSCA:1,2013-07-01T20:30:00Z,30.3288,-87.8293,1.95,2.96,1111122 
DISL,ioos:station:DISL:BSCA:1,2013-07-01T21:00:00Z,30.3288,-87.8293,1.963,5.35,1111122 
DISL,ioos:station:DISL:BSCA:1,2013-07-01T21:30:00Z,30.3288,-87.8293,1.956,4.15,1111122 
DISL,ioos:station:DISL:BSCA:1,2013-07-01T22:00:00Z,30.3288,-87.8293,1.935,5.31,1111122 
DISL,ioos:station:DISL:BSCA:1,2013-07-01T22:30:00Z,30.3288,-87.8293,1.934,7.36,1111122 
DISL,ioos:station:DISL:BSCA:1,2013-07-01T23:00:00Z,30.3288,-87.8293,1.932,7.75,1111122 
DISL,ioos:station:DISL:BSCA:1,2013-07-01T23:30:00Z,30.3288,-87.8293,1.952,7.23,1111122 
DISL,ioos:station:DISL:BSCA:1,2013-07-02T00:00:00Z,30.3288,-87.8293,1.964,9.79,1111122 
DISL,ioos:station:DISL:BSCA:1,2013-07-02T00:30:00Z,30.3288,-87.8293,1.969,8.4,1111122 
DISL,ioos:station:DISL:BSCA:1,2013-07-02T01:00:00Z,30.3288,-87.8293,1.975,11.08,1111122 
DISL,ioos:station:DISL:BSCA:1,2013-07-02T01:30:00Z,30.3288,-87.8293,1.996,11.54,1111122 
DISL,ioos:station:DISL:BSCA:1,2013-07-02T02:00:00Z,30.3288,-87.8293,1.991,11.76,1111122 
DISL,ioos:station:DISL:BSCA:1,2013-07-02T02:30:00Z,30.3288,-87.8293,1.988,11.18,1111122 
DISL,ioos:station:DISL:BSCA:1,2013-07-02T03:00:00Z,30.3288,-87.8293,2.021,10.88,1111122 
DISL,ioos:station:DISL:BSCA:1,2013-07-02T03:30:00Z,30.3288,-87.8293,2.039,10.55,1111122 
DISL,ioos:station:DISL:BSCA:1,2013-07-02T04:00:00Z,30.3288,-87.8293,2.045,8.21,1111122 
DISL,ioos:station:DISL:BSCA:1,2013-07-02T04:30:00Z,30.3288,-87.8293,2.051,6.94,1111122 
DISL,ioos:station:DISL:BSCA:1,2013-07-02T05:00:00Z,30.3288,-87.8293,2.057,9.26,1111122 
DISL,ioos:station:DISL:BSCA:1,2013-07-02T05:30:00Z,30.3288,-87.8293,2.064,10.54,1111122 
DISL,ioos:station:DISL:BSCA:1,2013-07-02T06:00:00Z,30.3288,-87.8293,2.063,9.64,1111122 
DISL,ioos:station:DISL:BSCA:1,2013-07-02T06:30:00Z,30.3288,-87.8293,2.068,10.25,1111122 
DISL,ioos:station:DISL:BSCA:1,2013-07-02T07:00:00Z,30.3288,-87.8293,2.071,9.97,1111122 
DISL,ioos:station:DISL:BSCA:1,2013-07-02T07:30:00Z,30.3288,-87.8293,2.093,9.26,1111122 
DISL,ioos:station:DISL:BSCA:1,2013-07-02T08:00:00Z,30.3288,-87.8293,2.113,8.9,1111122 
DISL,ioos:station:DISL:BSCA:1,2013-07-02T08:30:00Z,30.3288,-87.8293,2.147,9.21,1111122 
DISL,ioos:station:DISL:BSCA:1,2013-07-02T09:00:00Z,30.3288,-87.8293,2.163,8.3,1111122 
DISL,ioos:station:DISL:BSCA:1,2013-07-02T09:30:00Z,30.3288,-87.8293,2.186,7.76,1111122 
DISL,ioos:station:DISL:BSCA:1,2013-07-02T10:00:00Z,30.3288,-87.8293,2.212,7.39,1111122 
DISL,ioos:station:DISL:BSCA:1,2013-07-02T10:30:00Z,30.3288,-87.8293,2.216,7.21,1111122 
DISL,ioos:station:DISL:BSCA:1,2013-07-02T11:00:00Z,30.3288,-87.8293,2.236,7.87,1111122 
DISL,ioos:station:DISL:BSCA:1,2013-07-02T11:30:00Z,30.3288,-87.8293,2.229,8.43,1111122 
DISL,ioos:station:DISL:BSCA:1,2013-07-02T12:00:00Z,30.3288,-87.8293,2.226,8.62,1111122 
DISL,ioos:station:DISL:BSCA:1,2013-07-02T12:30:00Z,30.3288,-87.8293,2.226,8.41,1111122 
DISL,ioos:station:DISL:BSCA:1,2013-07-02T13:00:00Z,30.3288,-87.8293,2.216,6.96,1111122 
DISL,ioos:station:DISL:BSCA:1,2013-07-02T13:30:00Z,30.3288,-87.8293,2.216,5.54,1111122 
DISL,ioos:station:DISL:BSCA:1,2013-07-02T14:00:00Z,30.3288,-87.8293,2.206,4.26,1111122 
DISL,ioos:station:DISL:BSCA:1,2013-07-02T14:30:00Z,30.3288,-87.8293,2.194,4.87,1111122 
DISL,ioos:station:DISL:BSCA:1,2013-07-02T15:00:00Z,30.3288,-87.8293,2.175,6.12,1111122 
DISL,ioos:station:DISL:BSCA:1,2013-07-02T15:30:00Z,30.3288,-87.8293,2.145,5.24,1111122 
DISL,ioos:station:DISL:BSCA:1,2013-07-02T16:00:00Z,30.3288,-87.8293,2.122,3.2,1111122 
DISL,ioos:station:DISL:BSCA:1,2013-07-02T16:30:00Z,30.3288,-87.8293,2.088,5.77,1111122 
DISL,ioos:station:DISL:BSCA:1,2013-07-02T17:00:00Z,30.3288,-87.8293,2.063,5.46,1111122 
DISL,ioos:station:DISL:BSCA:1,2013-07-02T17:30:00Z,30.3288,-87.8293,2.034,6.85,1111122 
DISL,ioos:station:DISL:BSCA:1,2013-07-02T18:00:00Z,30.3288,-87.8293,2.002,8.49,1111122 
DISL,ioos:station:DISL:BSCA:1,2013-07-02T18:30:00Z,30.3288,-87.8293,1.976,8.9,1111122 
DISL,ioos:station:DISL:BSCA:1,2013-07-02T19:00:00Z,30.3288,-87.8293,1.945,8.35,1111122 
DISL,ioos:station:DISL:BSCA:1,2013-07-02T19:30:00Z,30.3288,-87.8293,1.926,6.51,1111122 
DISL,ioos:station:DISL:BSCA:1,2013-07-02T20:00:00Z,30.3288,-87.8293,1.906,6.03,1111122 
DISL,ioos:station:DISL:BSCA:1,2013-07-02T20:30:00Z,30.3288,-87.8293,1.886,6.57,1111122 
DISL,ioos:station:DISL:BSCA:1,2013-07-02T21:00:00Z,30.3288,-87.8293,1.87,7.09,1111122 
DISL,ioos:station:DISL:BSCA:1,2013-07-02T21:30:00Z,30.3288,-87.8293,1.851,5.64,1111122 
DISL,ioos:station:DISL:BSCA:1,2013-07-02T22:00:00Z,30.3288,-87.8293,1.836,8.64,1111122 
DISL,ioos:station:DISL:BSCA:1,2013-07-02T22:30:00Z,30.3288,-87.8293,1.832,10.66,1111122 
DISL,ioos:station:DISL:BSCA:1,2013-07-02T23:00:00Z,30.3288,-87.8293,1.824,10.97,1111122 
DISL,ioos:station:DISL:BSCA:1,2013-07-02T23:30:00Z,30.3288,-87.8293,1.813,10.88,1111122 
DISL,ioos:station:DISL:BSCA:1,2013-07-03T00:00:00Z,30.3288,-87.8293,1.823,10.26,1111122 
DISL,ioos:station:DISL:BSCA:1,2013-07-03T00:30:00Z,30.3288,-87.8293,1.823,8.93,1111122 
DISL,ioos:station:DISL:BSCA:1,2013-07-03T01:00:00Z,30.3288,-87.8293,1.841,8.48,1111122 
DISL,ioos:station:DISL:BSCA:1,2013-07-03T01:30:00Z,30.3288,-87.8293,1.869,9.2,1111122 
DISL,ioos:station:DISL:BSCA:1,2013-07-03T02:00:00Z,30.3288,-87.8293,1.883,8.3,1111122 
DISL,ioos:station:DISL:BSCA:1,2013-07-03T02:30:00Z,30.3288,-87.8293,1.902,6.79,1111122 
DISL,ioos:station:DISL:BSCA:1,2013-07-03T03:00:00Z,30.3288,-87.8293,1.912,7.74,1111122 
DISL,ioos:station:DISL:BSCA:1,2013-07-03T03:30:00Z,30.3288,-87.8293,1.939,8.88,1111122 
DISL,ioos:station:DISL:BSCA:1,2013-07-03T04:00:00Z,30.3288,-87.8293,1.965,3.64,1111122 
DISL,ioos:station:DISL:BSCA:1,2013-07-03T04:30:00Z,30.3288,-87.8293,2.006,8.69,1111122 
DISL,ioos:station:DISL:BSCA:1,2013-07-03T05:00:00Z,30.3288,-87.8293,2.025,9.43,1111122 
DISL,ioos:station:DISL:BSCA:1,2013-07-03T05:30:00Z,30.3288,-87.8293,2.044,7.02,1111122 
DISL,ioos:station:DISL:BSCA:1,2013-07-03T06:00:00Z,30.3288,-87.8293,2.057,9.62,1111122 
DISL,ioos:station:DISL:BSCA:1,2013-07-03T06:30:00Z,30.3288,-87.8293,2.07,9.35,1111122 
DISL,ioos:station:DISL:BSCA:1,2013-07-03T07:00:00Z,30.3288,-87.8293,2.08,4.34,1111122 
DISL,ioos:station:DISL:BSCA:1,2013-07-03T07:30:00Z,30.3288,-87.8293,2.104,4.33,1111122 
DISL,ioos:station:DISL:BSCA:1,2013-07-03T08:00:00Z,30.3288,-87.8293,2.119,3.66,1111122 
DISL,ioos:station:DISL:BSCA:1,2013-07-03T08:30:00Z,30.3288,-87.8293,2.143,5.76,1111122 
DISL,ioos:station:DISL:BSCA:1,2013-07-03T09:00:00Z,30.3288,-87.8293,2.152,5.16,1111122 
DISL,ioos:station:DISL:BSCA:1,2013-07-03T09:30:00Z,30.3288,-87.8293,2.186,7.85,1111122 
DISL,ioos:station:DISL:BSCA:1,2013-07-03T10:00:00Z,30.3288,-87.8293,2.215,6.56,1111122 
DISL,ioos:station:DISL:BSCA:1,2013-07-03T10:30:00Z,30.3288,-87.8293,2.236,4.29,1111122 
DISL,ioos:station:DISL:BSCA:1,2013-07-03T11:00:00Z,30.3288,-87.8293,2.255,4.81,1111122 
DISL,ioos:station:DISL:BSCA:1,2013-07-03T11:30:00Z,30.3288,-87.8293,2.257,3.57,1111122 
DISL,ioos:station:DISL:BSCA:1,2013-07-03T12:00:00Z,30.3288,-87.8293,2.261,7.65,1111122 
DISL,ioos:station:DISL:BSCA:1,2013-07-03T12:30:00Z,30.3288,-87.8293,2.263,5.34,1111122 
DISL,ioos:station:DISL:BSCA:1,2013-07-03T13:00:00Z,30.3288,-87.8293,2.274,5.96,1111122 
DISL,ioos:station:DISL:BSCA:1,2013-07-03T13:30:00Z,30.3288,-87.8293,2.268,4.88,1111122 
DISL,ioos:station:DISL:BSCA:1,2013-07-03T14:00:00Z,30.3288,-87.8293,2.268,6.46,1111122 
DISL,ioos:station:DISL:BSCA:1,2013-07-03T14:30:00Z,30.3288,-87.8293,2.262,6.88,1111122 
DISL,ioos:station:DISL:BSCA:1,2013-07-03T15:00:00Z,30.3288,-87.8293,2.248,4.54,1111122 
DISL,ioos:station:DISL:BSCA:1,2013-07-03T15:30:00Z,30.3288,-87.8293,2.228,4.2,1111122 
DISL,ioos:station:DISL:BSCA:1,2013-07-03T16:00:00Z,30.3288,-87.8293,2.219,4.79,1111122 
DISL,ioos:station:DISL:BSCA:1,2013-07-03T16:30:00Z,30.3288,-87.8293,2.176,5.94,1111122 
DISL,ioos:station:DISL:BSCA:1,2013-07-03T17:00:00Z,30.3288,-87.8293,2.141,6.71,1111122 
DISL,ioos:station:DISL:BSCA:1,2013-07-03T17:30:00Z,30.3288,-87.8293,2.095,7.15,1111122 
DISL,ioos:station:DISL:BSCA:1,2013-07-03T18:00:00Z,30.3288,-87.8293,2.068,9.22,1111122 
DISL,ioos:station:DISL:BSCA:1,2013-07-03T18:30:00Z,30.3288,-87.8293,2.033,9.98,1111122 
DISL,ioos:station:DISL:BSCA:1,2013-07-03T19:00:00Z,30.3288,-87.8293,1.994,10.08,1111122 
DISL,ioos:station:DISL:BSCA:1,2013-07-03T19:30:00Z,30.3288,-87.8293,1.942,9.65,1111122 
DISL,ioos:station:DISL:BSCA:1,2013-07-03T20:00:00Z,30.3288,-87.8293,1.895,9.8,1111122 
DISL,ioos:station:DISL:BSCA:1,2013-07-03T20:30:00Z,30.3288,-87.8293,1.858,9.79,1111122 
DISL,ioos:station:DISL:BSCA:1,2013-07-03T21:00:00Z,30.3288,-87.8293,1.862,9.78,1111122 
DISL,ioos:station:DISL:BSCA:1,2013-07-03T21:30:00Z,30.3288,-87.8293,1.865,9.89,1111122 
DISL,ioos:station:DISL:BSCA:1,2013-07-03T22:00:00Z,30.3288,-87.8293,1.851,10.05,1111122 
DISL,ioos:station:DISL:BSCA:1,2013-07-03T22:30:00Z,30.3288,-87.8293,1.859,10.11,1111122 
DISL,ioos:station:DISL:BSCA:1,2013-07-03T23:00:00Z,30.3288,-87.8293,1.86,9.91,1111122 
DISL,ioos:station:DISL:BSCA:1,2013-07-03T23:30:00Z,30.3288,-87.8293,1.883,9.76,1111122 
DISL,ioos:station:DISL:BSCA:1,2013-07-04T00:00:00Z,30.3288,-87.8293,1.895,9.2,1111122 
DISL,ioos:station:DISL:BSCA:1,2013-07-04T00:30:00Z,30.3288,-87.8293,1.904,8.66,1111122 
DISL,ioos:station:DISL:BSCA:1,2013-07-04T01:00:00Z,30.3288,-87.8293,1.911,7.73,1111122 
DISL,ioos:station:DISL:BSCA:1,2013-07-04T01:30:00Z,30.3288,-87.8293,1.924,7.17,1111122 
DISL,ioos:station:DISL:BSCA:1,2013-07-04T02:00:00Z,30.3288,-87.8293,1.947,7.5,1111122 
DISL,ioos:station:DISL:BSCA:1,2013-07-04T02:30:00Z,30.3288,-87.8293,1.962,7.53,1111122 
DISL,ioos:station:DISL:BSCA:1,2013-07-04T03:00:00Z,30.3288,-87.8293,1.969,5.13,1111122 
DISL,ioos:station:DISL:BSCA:1,2013-07-04T03:30:00Z,30.3288,-87.8293,1.971,7.94,1111122 
DISL,ioos:station:DISL:BSCA:1,2013-07-04T04:00:00Z,30.3288,-87.8293,2.005,7.04,1111122 
DISL,ioos:station:DISL:BSCA:1,2013-07-04T04:30:00Z,30.3288,-87.8293,1.973,3.95,1111122 
DISL,ioos:station:DISL:BSCA:1,2013-07-04T05:00:00Z,30.3288,-87.8293,2.002,6.04,1111122 
DISL,ioos:station:DISL:BSCA:1,2013-07-04T05:30:00Z,30.3288,-87.8293,2.009,3.06,1111122 
DISL,ioos:station:DISL:BSCA:1,2013-07-04T06:00:00Z,30.3288,-87.8293,2.049,1.98,1111122 
DISL,ioos:station:DISL:BSCA:1,2013-07-04T06:30:00Z,30.3288,-87.8293,2.075,5.05,1111122 
DISL,ioos:station:DISL:BSCA:1,2013-07-04T07:00:00Z,30.3288,-87.8293,2.122,1.28,1111122 
DISL,ioos:station:DISL:BSCA:1,2013-07-04T07:30:00Z,30.3288,-87.8293,2.152,0.3,1111122 
DISL,ioos:station:DISL:BSCA:1,2013-07-04T08:00:00Z,30.3288,-87.8293,2.13,0.54,1111122 
DISL,ioos:station:DISL:BSCA:1,2013-07-04T08:30:00Z,30.3288,-87.8293,2.146,0.6,1111122 
DISL,ioos:station:DISL:BSCA:1,2013-07-04T09:00:00Z,30.3288,-87.8293,2.18,0.2,1111122 
DISL,ioos:station:DISL:BSCA:1,2013-07-04T09:30:00Z,30.3288,-87.8293,2.198,0.24,1111122 
DISL,ioos:station:DISL:BSCA:1,2013-07-04T10:00:00Z,30.3288,-87.8293,2.212,0.2,1111122 
DISL,ioos:station:DISL:BSCA:1,2013-07-04T10:30:00Z,30.3288,-87.8293,2.25,0.2,1111122 
DISL,ioos:station:DISL:BSCA:1,2013-07-04T11:00:00Z,30.3288,-87.8293,2.278,0.2,1111122 
DISL,ioos:station:DISL:BSCA:1,2013-07-04T11:30:00Z,30.3288,-87.8293,2.345,0.19,1111122 
DISL,ioos:station:DISL:BSCA:1,2013-07-04T12:00:00Z,30.3288,-87.8293,2.364,0.19,1111122 
DISL,ioos:station:DISL:BSCA:1,2013-07-04T12:30:00Z,30.3288,-87.8293,2.383,0.19,1111122 
DISL,ioos:station:DISL:BSCA:1,2013-07-04T13:00:00Z,30.3288,-87.8293,2.38,0.19,1111122 
DISL,ioos:station:DISL:BSCA:1,2013-07-04T13:30:00Z,30.3288,-87.8293,2.374,0.19,1111122 
DISL,ioos:station:DISL:BSCA:1,2013-07-04T14:00:00Z,30.3288,-87.8293,2.378,0.19,1111122 
DISL,ioos:station:DISL:BSCA:1,2013-07-04T14:30:00Z,30.3288,-87.8293,2.356,0.19,1111122 
DISL,ioos:station:DISL:BSCA:1,2013-07-04T15:00:00Z,30.3288,-87.8293,2.35,0.19,1111122 
DISL,ioos:station:DISL:BSCA:1,2013-07-04T15:30:00Z,30.3288,-87.8293,2.333,0.19,1111122 
DISL,ioos:station:DISL:BSCA:1,2013-07-04T16:00:00Z,30.3288,-87.8293,2.315,0.2,1111122 
DISL,ioos:station:DISL:BSCA:1,2013-07-04T16:30:00Z,30.3288,-87.8293,2.294,0.2,1111122 
DISL,ioos:station:DISL:BSCA:1,2013-07-04T17:00:00Z,30.3288,-87.8293,2.273,0.23,1111122 
DISL,ioos:station:DISL:BSCA:1,2013-07-04T17:30:00Z,30.3288,-87.8293,2.25,0.24,1111122 
DISL,ioos:station:DISL:BSCA:1,2013-07-04T18:00:00Z,30.3288,-87.8293,2.214,0.42,1111122 
DISL,ioos:station:DISL:BSCA:1,2013-07-04T18:30:00Z,30.3288,-87.8293,2.175,0.23,1111122 
DISL,ioos:station:DISL:BSCA:1,2013-07-04T19:00:00Z,30.3288,-87.8293,2.141,0.95,1111122 
DISL,ioos:station:DISL:BSCA:1,2013-07-04T19:30:00Z,30.3288,-87.8293,2.105,1.05,1111122 
DISL,ioos:station:DISL:BSCA:1,2013-07-04T20:00:00Z,30.3288,-87.8293,2.067,5.22,1111122 
DISL,ioos:station:DISL:BSCA:1,2013-07-04T20:30:00Z,30.3288,-87.8293,2.027,9.21,1111122 
DISL,ioos:station:DISL:BSCA:1,2013-07-04T21:00:00Z,30.3288,-87.8293,1.939,9.26,1111122 
DISL,ioos:station:DISL:BSCA:1,2013-07-04T21:30:00Z,30.3288,-87.8293,1.918,9.27,1111122 
DISL,ioos:station:DISL:BSCA:1,2013-07-04T22:00:00Z,30.3288,-87.8293,1.874,8.87,1111122 
DISL,ioos:station:DISL:BSCA:1,2013-07-04T22:30:00Z,30.3288,-87.8293,1.865,8.93,1111122 
DISL,ioos:station:DISL:BSCA:1,2013-07-04T23:00:00Z,30.3288,-87.8293,1.886,8.88,1111122 
DISL,ioos:station:DISL:BSCA:1,2013-07-04T23:30:00Z,30.3288,-87.8293,1.898,8.74,1111122 
DISL,ioos:station:DISL:BSCA:1,2013-07-05T00:00:00Z,30.3288,-87.8293,1.929,8.81,1111122 
DISL,ioos:station:DISL:BSCA:1,2013-07-05T00:30:00Z,30.3288,-87.8293,1.921,8.83,1111122 
DISL,ioos:station:DISL:BSCA:1,2013-07-05T01:00:00Z,30.3288,-87.8293,1.981,8.56,1111122 
DISL,ioos:station:DISL:BSCA:1,2013-07-05T01:30:00Z,30.3288,-87.8293,2.017,8.34,1111122 
DISL,ioos:station:DISL:BSCA:1,2013-07-05T02:00:00Z,30.3288,-87.8293,2.044,8.27,1111122 
DISL,ioos:station:DISL:BSCA:1,2013-07-05T02:30:00Z,30.3288,-87.8293,2.033,8.44,1111122 
DISL,ioos:station:DISL:BSCA:1,2013-07-05T03:00:00Z,30.3288,-87.8293,2.069,8.29,1111122 
DISL,ioos:station:DISL:BSCA:1,2013-07-05T03:30:00Z,30.3288,-87.8293,2.11,8.37,1111122 
DISL,ioos:station:DISL:BSCA:1,2013-07-05T04:00:00Z,30.3288,-87.8293,2.075,8.19,1111122 
DISL,ioos:station:DISL:BSCA:1,2013-07-05T04:30:00Z,30.3288,-87.8293,2.158,7.94,1111122 
DISL,ioos:station:DISL:BSCA:1,2013-07-05T05:00:00Z,30.3288,-87.8293,2.19,7.95,1111122 
DISL,ioos:station:DISL:BSCA:1,2013-07-05T05:30:00Z,30.3288,-87.8293,2.213,7.9,1111122 
DISL,ioos:station:DISL:BSCA:1,2013-07-05T06:00:00Z,30.3288,-87.8293,2.217,7.86,1111122 
DISL,ioos:station:DISL:BSCA:1,2013-07-05T06:30:00Z,30.3288,-87.8293,2.233,7.34,1111122 
DISL,ioos:station:DISL:BSCA:1,2013-07-05T07:00:00Z,30.3288,-87.8293,2.253,7.23,1111122 
DISL,ioos:station:DISL:BSCA:1,2013-07-05T07:30:00Z,30.3288,-87.8293,2.264,7.11,1111122 
DISL,ioos:station:DISL:BSCA:1,2013-07-05T08:00:00Z,30.3288,-87.8293,2.304,6.9,1111122 
DISL,ioos:station:DISL:BSCA:1,2013-07-05T08:30:00Z,30.3288,-87.8293,2.32,6.5,1111122 
DISL,ioos:station:DISL:BSCA:1,2013-07-05T09:00:00Z,30.3288,-87.8293,2.323,5.69,1111122 
DISL,ioos:station:DISL:BSCA:1,2013-07-05T09:30:00Z,30.3288,-87.8293,2.325,6.38,1111122 
DISL,ioos:station:DISL:BSCA:1,2013-07-05T10:00:00Z,30.3288,-87.8293,2.316,4.55,1111122 
DISL,ioos:station:DISL:BSCA:1,2013-07-05T10:30:00Z,30.3288,-87.8293,2.337,6.16,1111122 
DISL,ioos:station:DISL:BSCA:1,2013-07-05T11:00:00Z,30.3288,-87.8293,2.291,3.69,1111122 
DISL,ioos:station:DISL:BSCA:1,2013-07-05T11:30:00Z,30.3288,-87.8293,2.304,5.82,1111122 
DISL,ioos:station:DISL:BSCA:1,2013-07-05T12:00:00Z,30.3288,-87.8293,2.295,6.89,1111122 
DISL,ioos:station:DISL:BSCA:1,2013-07-05T12:30:00Z,30.3288,-87.8293,2.306,4.81,1111122 
DISL,ioos:station:DISL:BSCA:1,2013-07-05T13:00:00Z,30.3288,-87.8293,2.285,7.22,1111122 
DISL,ioos:station:DISL:BSCA:1,2013-07-05T13:30:00Z,30.3288,-87.8293,2.303,6.93,1111122 
DISL,ioos:station:DISL:BSCA:1,2013-07-05T14:00:00Z,30.3288,-87.8293,2.294,7.02,1111122 
DISL,ioos:station:DISL:BSCA:1,2013-07-05T14:30:00Z,30.3288,-87.8293,2.316,6.87,1111122 
DISL,ioos:station:DISL:BSCA:1,2013-07-05T15:00:00Z,30.3288,-87.8293,2.35,6.85,1111122 
DISL,ioos:station:DISL:BSCA:1,2013-07-05T15:30:00Z,30.3288,-87.8293,2.367,7.0,1111122 
DISL,ioos:station:DISL:BSCA:1,2013-07-05T16:00:00Z,30.3288,-87.8293,2.361,7.14,1111122 
DISL,ioos:station:DISL:BSCA:1,2013-07-05T16:30:00Z,30.3288,-87.8293,2.329,7.06,1111122 
DISL,ioos:station:DISL:BSCA:1,2013-07-05T17:00:00Z,30.3288,-87.8293,2.306,6.78,1111122 
DISL,ioos:station:DISL:BSCA:1,2013-07-05T17:30:00Z,30.3288,-87.8293,2.286,7.12,1111122 
DISL,ioos:station:DISL:BSCA:1,2013-07-05T18:00:00Z,30.3288,-87.8293,2.22,6.92,1111122 
DISL,ioos:station:DISL:BSCA:1,2013-07-05T18:30:00Z,30.3288,-87.8293,2.203,6.33,1111122 
DISL,ioos:station:DISL:BSCA:1,2013-07-05T19:00:00Z,30.3288,-87.8293,2.167,6.54,1111122 
DISL,ioos:station:DISL:BSCA:1,2013-07-05T19:30:00Z,30.3288,-87.8293,2.152,6.33,1111122 
DISL,ioos:station:DISL:BSCA:1,2013-07-05T20:00:00Z,30.3288,-87.8293,2.119,6.16,1111122 
DISL,ioos:station:DISL:BSCA:1,2013-07-05T20:30:00Z,30.3288,-87.8293,2.084,6.84,1111122 
DISL,ioos:station:DISL:BSCA:1,2013-07-05T21:00:00Z,30.3288,-87.8293,2.049,6.01,1111122 
DISL,ioos:station:DISL:BSCA:1,2013-07-05T21:30:00Z,30.3288,-87.8293,2.023,4.97,1111122 
DISL,ioos:station:DISL:BSCA:1,2013-07-05T22:00:00Z,30.3288,-87.8293,1.967,6.83,1111122 
DISL,ioos:station:DISL:BSCA:1,2013-07-05T22:30:00Z,30.3288,-87.8293,1.932,6.13,1111122 
DISL,ioos:station:DISL:BSCA:1,2013-07-05T23:00:00Z,30.3288,-87.8293,1.86,9.16,1111122 
DISL,ioos:station:DISL:BSCA:1,2013-07-05T23:30:00Z,30.3288,-87.8293,1.814,8.98,1111122 
DISL,ioos:station:DISL:BSCA:1,2013-07-06T00:00:00Z,30.3288,-87.8293,1.786,9.07,1111122 
DISL,ioos:station:DISL:BSCA:1,2013-07-06T00:30:00Z,30.3288,-87.8293,1.763,8.59,1111122 
DISL,ioos:station:DISL:BSCA:1,2013-07-06T01:00:00Z,30.3288,-87.8293,1.787,8.44,1111122 
DISL,ioos:station:DISL:BSCA:1,2013-07-06T01:30:00Z,30.3288,-87.8293,1.783,8.67,1111122 
DISL,ioos:station:DISL:BSCA:1,2013-07-06T02:00:00Z,30.3288,-87.8293,1.78,8.71,1111122 
DISL,ioos:station:DISL:BSCA:1,2013-07-06T02:30:00Z,30.3288,-87.8293,1.784,8.71,1111122 
DISL,ioos:station:DISL:BSCA:1,2013-07-06T03:00:00Z,30.3288,-87.8293,1.812,8.34,1111122 
DISL,ioos:station:DISL:BSCA:1,2013-07-06T03:30:00Z,30.3288,-87.8293,1.848,8.53,1111122 
DISL,ioos:station:DISL:BSCA:1,2013-07-06T04:00:00Z,30.3288,-87.8293,1.889,8.6,1111122 
DISL,ioos:station:DISL:BSCA:1,2013-07-06T04:30:00Z,30.3288,-87.8293,1.908,8.47,1111122 
DISL,ioos:station:DISL:BSCA:1,2013-07-06T05:00:00Z,30.3288,-87.8293,1.954,8.19,1111122 
DISL,ioos:station:DISL:BSCA:1,2013-07-06T05:30:00Z,30.3288,-87.8293,1.942,8.31,1111122 
DISL,ioos:station:DISL:BSCA:1,2013-07-06T06:00:00Z,30.3288,-87.8293,2.001,7.63,1111122 
DISL,ioos:station:DISL:BSCA:1,2013-07-06T06:30:00Z,30.3288,-87.8293,2.053,8.06,1111122 
DISL,ioos:station:DISL:BSCA:1,2013-07-06T07:00:00Z,30.3288,-87.8293,2.116,7.83,1111122 
DISL,ioos:station:DISL:BSCA:1,2013-07-06T07:30:00Z,30.3288,-87.8293,2.153,7.6,1111122 
DISL,ioos:station:DISL:BSCA:1,2013-07-06T08:00:00Z,30.3288,-87.8293,2.169,7.39,1111122 
DISL,ioos:station:DISL:BSCA:1,2013-07-06T08:30:00Z,30.3288,-87.8293,2.162,4.36,1111122 
DISL,ioos:station:DISL:BSCA:1,2013-07-06T09:00:00Z,30.3288,-87.8293,2.146,5.85,1111122 
DISL,ioos:station:DISL:BSCA:1,2013-07-06T09:30:00Z,30.3288,-87.8293,2.143,5.37,1111122 
DISL,ioos:station:DISL:BSCA:1,2013-07-06T10:00:00Z,30.3288,-87.8293,2.183,6.19,1111122 
DISL,ioos:station:DISL:BSCA:1,2013-07-06T10:30:00Z,30.3288,-87.8293,2.22,6.86,1111122 
DISL,ioos:station:DISL:BSCA:1,2013-07-06T11:00:00Z,30.3288,-87.8293,2.254,6.56,1111122 
DISL,ioos:station:DISL:BSCA:1,2013-07-06T11:30:00Z,30.3288,-87.8293,2.265,5.57,1111122 
DISL,ioos:station:DISL:BSCA:1,2013-07-06T12:00:00Z,30.3288,-87.8293,2.281,5.45,1111122 
DISL,ioos:station:DISL:BSCA:1,2013-07-06T12:30:00Z,30.3288,-87.8293,2.296,5.5,1111122 
DISL,ioos:station:DISL:BSCA:1,2013-07-06T13:00:00Z,30.3288,-87.8293,2.336,5.81,1111122 
DISL,ioos:station:DISL:BSCA:1,2013-07-06T13:30:00Z,30.3288,-87.8293,2.494,6.86,1111122 
DISL,ioos:station:DISL:BSCA:1,2013-07-06T14:00:00Z,30.3288,-87.8293,2.426,6.44,1111122 
DISL,ioos:station:DISL:BSCA:1,2013-07-06T14:30:00Z,30.3288,-87.8293,2.437,6.36,1111122 
DISL,ioos:station:DISL:BSCA:1,2013-07-06T15:00:00Z,30.3288,-87.8293,2.357,6.8,1111122 
DISL,ioos:station:DISL:BSCA:1,2013-07-06T15:30:00Z,30.3288,-87.8293,2.33,6.46,1111122 